Date String (YYYY-MM-DD hh:mm:ss) UTC,Instrument flags,Ambient pressure (hPa),Sample flow (lpm),Bypass flow (lpm),Sample temperature (°C),Ambient temperature (°C),ASC tube jacket temperature (°C),LED temperature (°C),Box temperature (°C),Sample RH (%),Span deviation,Mass concentration (μg/m³),Mass concentration (μg/m³),Mass concentration (μg/m³)
DateTimeUTC,F1_M11,P_M11,Q1_M11,Q2_M11,T1_M11,T2_M11,T3_M11,T4_M11,T5_M11,U1_M11,ZSPAN_M11,X0_M11,X2_M11,X1_M11
2021-11-02 20:00:00,,0829.6,4.99,0.00,24.0,23.3,00.0,33.0,25.9,21.9,-001.5,0014.07,0010.62,0010.06
2021-11-02 20:01:00,,0829.6,5.01,0.00,24.0,23.3,00.0,33.1,25.9,21.9,-001.4,0013.74,0010.65,0010.06
2021-11-02 20:02:00,,0829.6,5.00,0.00,24.1,23.3,00.0,33.1,25.9,21.9,-001.5,0013.39,0010.64,0010.03
2021-11-02 20:03:00,,0829.5,5.00,0.00,24.1,23.3,00.0,33.1,25.9,21.8,-001.3,0013.49,0010.62,0010.01
2021-11-02 20:04:00,,0829.6,4.99,0.00,24.0,23.3,00.0,33.1,25.9,21.8,-001.2,0013.76,0010.61,0010.00
2021-11-02 20:05:00,,0829.6,5.01,0.00,24.0,23.3,00.0,33.1,25.9,22.0,-000.9,0014.00,0010.60,0010.00
2021-11-02 20:06:00,,0829.6,5.00,0.00,24.1,23.3,00.0,33.1,25.9,21.8,-000.7,0014.88,0010.60,0010.01
2021-11-02 20:07:00,,0829.6,5.00,0.00,24.0,23.3,00.0,33.1,25.9,21.9,-001.0,0015.87,0010.61,0010.02
2021-11-02 20:08:00,,0829.6,4.99,0.00,24.0,23.3,00.0,33.1,25.9,21.9,-001.3,0016.66,0010.66,0010.03
2021-11-02 20:09:00,,0829.6,5.00,0.00,24.0,23.3,00.0,33.1,25.9,22.1,-001.4,0016.71,0010.67,0010.03
2021-11-02 20:10:00,,0829.5,5.00,0.00,24.0,23.3,00.0,33.1,25.9,21.8,-001.5,0016.81,0010.70,0010.04
2021-11-02 20:11:00,,0829.5,4.99,0.00,24.0,23.3,00.0,33.1,25.9,21.7,-001.4,0016.72,0010.66,0010.03
2021-11-02 20:12:00,,0829.5,5.01,0.00,24.0,23.3,00.0,33.1,25.9,21.8,-001.0,0016.93,0010.63,0010.02
2021-11-02 20:13:00,,0829.5,4.99,0.00,24.0,23.3,00.0,33.1,25.9,21.9,-001.1,0017.16,0010.60,0010.03
2021-11-02 20:14:00,,0829.5,5.00,0.00,24.0,23.3,00.0,33.1,25.9,21.8,-001.5,0017.08,0010.58,0010.03
2021-11-02 20:15:00,,0829.6,5.01,0.00,24.0,23.3,00.0,33.1,25.9,21.7,-001.5,0016.84,0010.58,0010.02
2021-11-02 20:16:00,,0829.5,4.99,0.00,24.0,23.3,00.0,33.1,25.9,21.9,-001.7,0016.58,0010.62,0010.05
2021-11-02 20:17:00,,0829.5,5.01,0.00,24.0,23.3,00.0,33.1,25.9,21.9,-001.9,0015.94,0010.61,0010.07
2021-11-02 20:18:00,,0829.5,4.99,0.00,24.1,23.3,00.0,33.1,25.9,21.8,-001.8,0014.70,0010.60,0010.08
2021-11-02 20:19:00,,0829.5,5.02,0.00,24.1,23.3,00.0,33.1,25.9,21.9,-001.9,0013.92,0010.57,0010.09
2021-11-02 20:20:00,,0829.4,4.99,0.00,24.1,23.4,00.0,33.1,25.9,21.9,-001.9,0013.98,0010.62,0010.13
2021-11-02 20:21:00,,0829.4,5.01,0.00,24.1,23.4,00.0,33.1,25.9,21.9,-001.7,0013.96,0010.62,0010.14
2021-11-02 20:22:00,,0829.5,4.99,0.00,24.1,23.4,00.0,33.1,26.0,22.0,-001.5,0013.96,0010.67,0010.16
2021-11-02 20:23:00,,0829.5,5.00,0.00,24.1,23.4,00.0,33.1,26.0,22.0,-001.7,0013.81,0010.74,0010.21
2021-11-02 20:24:00,,0829.5,5.00,0.00,24.1,23.4,00.0,33.1,26.0,22.2,-001.7,0013.46,0010.80,0010.24
2021-11-02 20:25:00,,0829.5,5.00,0.00,24.1,23.4,00.0,33.1,26.0,22.2,-001.3,0013.43,0010.84,0010.28
2021-11-02 20:26:00,,0829.5,5.00,0.00,24.1,23.4,00.0,33.1,26.0,22.1,-001.1,0013.48,0010.86,0010.32
2021-11-02 20:27:00,,0829.5,4.99,0.00,24.1,23.4,00.0,33.1,26.0,22.0,-000.9,0013.65,0010.83,0010.32
2021-11-02 20:28:00,,0829.5,5.01,0.00,24.2,23.4,00.0,33.1,26.0,22.1,-000.7,0013.56,0010.83,0010.33
2021-11-02 20:29:00,,0829.5,5.01,0.00,24.2,23.5,00.0,33.1,26.0,22.2,-000.9,0013.57,0010.83,0010.33
2021-11-02 20:30:00,,0829.5,4.99,0.00,24.2,23.5,00.0,33.1,26.0,22.0,-000.8,0013.61,0010.80,0010.32
2021-11-02 20:31:00,,0829.5,5.01,0.00,24.2,23.5,00.0,33.1,26.0,21.9,-000.4,0014.06,0010.74,0010.30
2021-11-02 20:32:00,,0829.5,4.99,0.00,24.2,23.5,00.0,33.1,26.0,21.8,-000.3,0014.35,0010.74,0010.29
2021-11-02 20:33:00,,0829.5,5.01,0.00,24.2,23.5,00.0,33.1,26.1,21.9,-000.5,0014.79,0010.71,0010.28
2021-11-02 20:34:00,,0829.4,4.98,0.00,24.2,23.5,00.0,33.2,26.1,22.0,-000.7,0014.74,0010.70,0010.28
2021-11-02 20:35:00,,0829.5,5.01,0.00,24.2,23.5,00.0,33.2,26.1,21.9,-000.8,0014.82,0010.71,0010.29
2021-11-02 20:36:00,,0829.5,5.01,0.00,24.2,23.5,00.0,33.2,26.1,21.9,-001.1,0014.95,0010.78,0010.31
2021-11-02 20:37:00,,0829.5,4.99,0.00,24.2,23.5,00.0,33.2,26.1,21.8,-001.1,0015.01,0010.82,0010.34
2021-11-02 20:38:00,,0829.5,5.00,0.00,24.2,23.5,00.0,33.2,26.1,21.9,-001.2,0014.90,0010.91,0010.40
2021-11-02 20:39:00,,0829.5,4.98,0.00,24.2,23.5,00.0,33.2,26.1,21.9,-001.0,0015.00,0010.95,0010.45
2021-11-02 20:40:00,,0829.5,5.00,0.00,24.3,23.5,00.0,33.2,26.1,22.0,-001.0,0015.15,0011.02,0010.50
2021-11-02 20:41:00,,0829.5,5.00,0.00,24.3,23.6,00.0,33.2,26.1,22.0,-000.9,0015.27,0011.11,0010.55
2021-11-02 20:42:00,,0829.5,5.01,0.00,24.3,23.6,00.0,33.2,26.1,21.8,-001.1,0014.82,0011.20,0010.63
2021-11-02 20:43:00,,0829.5,4.99,0.00,24.3,23.6,00.0,33.2,26.1,21.8,-001.3,0015.22,0011.27,0010.69
2021-11-02 20:44:00,,0829.5,5.01,0.00,24.2,23.5,00.0,33.2,26.1,21.8,-001.4,0014.91,0011.33,0010.74
2021-11-02 20:45:00,,0829.5,5.00,0.00,24.3,23.5,00.0,33.2,26.1,21.9,-001.2,0014.94,0011.36,0010.79
2021-11-02 20:46:00,,0829.5,5.00,0.00,24.3,23.5,00.0,33.2,26.1,22.0,-001.3,0014.80,0011.34,0010.79
2021-11-02 20:47:00,,0829.5,5.00,0.00,24.3,23.5,00.0,33.2,26.1,22.0,-001.3,0014.68,0011.29,0010.78
2021-11-02 20:48:00,,0829.5,5.02,0.00,24.3,23.6,00.0,33.2,26.1,21.9,-001.4,0014.76,0011.29,0010.74
2021-11-02 20:49:00,,0829.5,5.00,0.00,24.3,23.6,00.0,33.3,26.2,22.0,-001.4,0014.72,0011.24,0010.70
2021-11-02 20:50:00,,0829.5,5.00,0.00,24.3,23.6,00.0,33.3,26.2,21.7,-001.5,0014.73,0011.23,0010.67
2021-11-02 20:51:00,,0829.5,5.01,0.00,24.3,23.6,00.0,33.3,26.2,21.6,-001.4,0014.64,0011.22,0010.65
2021-11-02 20:52:00,,0829.5,4.99,0.00,24.3,23.6,00.0,33.3,26.2,21.7,-001.3,0014.64,0011.23,0010.66
2021-11-02 20:53:00,,0829.4,5.01,0.00,24.3,23.6,00.0,33.3,26.2,21.7,-001.4,0014.66,0011.23,0010.64
2021-11-02 20:54:00,,0829.5,5.01,0.00,24.3,23.6,00.0,33.3,26.2,21.8,-001.5,0014.10,0011.22,0010.62
2021-11-02 20:55:00,,0829.5,5.00,0.00,24.3,23.6,00.0,33.3,26.2,21.7,-001.6,0014.23,0011.27,0010.60
2021-11-02 20:56:00,,0829.5,4.99,0.00,24.3,23.6,00.0,33.3,26.2,21.6,-001.5,0014.34,0011.27,0010.59
2021-11-02 20:57:00,,0829.5,5.01,0.00,24.3,23.6,00.0,33.3,26.2,21.6,-001.2,0014.67,0011.29,0010.61
2021-11-02 20:58:00,,0829.5,5.00,0.00,24.4,23.6,00.0,33.3,26.2,21.5,-001.3,0014.93,0011.35,0010.65
2021-11-02 20:59:00,,0829.5,5.00,0.00,24.4,23.6,00.0,33.3,26.3,21.6,-001.6,0014.85,0011.34,0010.67
